Location: Unspecified
(50.7693°N, 0.0000°E)
Time: 07:38:17
(UTC+00:00)

Transit 2A - Pass Details

Date: 14 August 2020
Orbit: 591 x 967 km, 66.7° (Epoch: 20 September)

Event Time Altitude Azimuth Distance (km) Brightness Sun altitude
Rises 00:16:45 0° 307° (NW) 3,629 9.9 -24.9°
Reaches altitude 10° 00:20:06 10° 324° (NW) 2,707 9.5 -24.9°
Maximum altitude 00:24:38 20° 10° (N) 2,093 9.1 -24.8°
Drops below altitude 10° 00:29:09 10° 55° (NE) 2,697 9.3 -24.7°
Sets 00:32:29 0° 72° (ENE) 3,611 9.8 -24.7°
